GROUP/SHIP,CRUISE_DESIGNATION,JD_GMT,DATE_DDMMYYYY,TIME_HH:MM:SS,LAT_DEC_DEGREE,LONG_DEC_DEGREE,xCO2W_PPM,xCO2A_PPM,PRES_EQUIL_hPa,PRES_SEALEVEL_hPa,EqTEMP_C,SST(TSG)_C,SAL(TSG)_PERMIL,WATER_FLOW_L/MIN,GAS_FLOW_IR_ML/MIN,TEMP_IR_C,PRES_IR_hPa,SHIP_HEADING_TRUE_DEGREE,SHIP_SPEED_KNOT,WIND_DIR_REL_DEGREE,WIND_SPEED_REL_M/S,fCO2W@SST_uATM,QC_FLAG_WATER,fCO2A_uATM,QC_FLAG_AIR,dfCO2_uATM,FLUORO_uG/L,WIND_SPEED_TRUE_M/S,WIND_DIR_TRUE_DEGREE,AIR_TEMP_C
AOML_Brown,RB200709,289.925,16102007,22:12:12,7.044,-79.836,-999.99,-999.99,1007.30,1007.92,26.74,26.55,29.78,9.02,367.39,27.36,1007.30,184.70,12.40,38.30,14.48,-999.99,4,-999.99,4,-999.99,1.42,154.29,250.42,24.46
AOML_Brown,RB200709,289.928,16102007,22:16:52,7.028,-79.837,-999.99,-999.99,1007.25,1008.05,26.70,26.51,30.40,8.99,341.93,28.11,1007.25,184.60,11.70,39.00,14.18,-999.99,4,-999.99,4,-999.99,1.43,154.27,250.60,24.56
AOML_Brown,RB200709,289.931,16102007,22:21:12,7.014,-79.838,-999.99,-999.99,1007.42,1008.08,26.59,26.45,29.47,9.07,337.68,28.79,1007.42,181.30,11.80,44.90,14.08,-999.99,4,-999.99,4,-999.99,1.41,154.21,257.65,24.56
AOML_Brown,RB200709,289.934,16102007,22:25:32,6.999,-79.838,-999.99,-999.99,1007.33,1008.20,26.47,26.25,29.19,9.11,334.36,29.38,1007.33,179.90,11.60,39.80,12.99,-999.99,4,-999.99,4,-999.99,1.53,154.15,255.36,24.61
AOML_Brown,RB200709,289.946,16102007,22:42:12,6.947,-79.847,-999.99,-999.99,1007.28,1008.09,26.71,26.56,29.66,9.41,330.46,31.14,1007.28,191.30,11.70,39.40,13.88,-999.99,4,-999.99,4,-999.99,1.22,154.28,259.76,24.66
AOML_Brown,RB200709,289.949,16102007,22:46:32,6.934,-79.850,-999.99,-999.99,1007.26,1008.08,26.74,26.59,29.70,9.08,380.22,31.51,1007.26,191.50,11.70,37.30,13.28,-999.99,4,-999.99,4,-999.99,1.22,154.29,258.02,24.58
AOML_Brown,RB200709,289.952,16102007,22:51:12,6.919,-79.853,-999.99,-999.99,1007.30,1007.99,26.76,26.62,29.58,9.10,354.74,31.83,1007.30,191.00,11.90,42.60,13.98,-999.99,4,-999.99,4,-999.99,1.22,154.30,263.30,24.56
AOML_Brown,RB200709,289.955,16102007,22:55:32,6.904,-79.856,-999.99,-999.99,1007.20,1007.92,26.75,26.61,29.47,9.16,321.52,32.12,1007.20,189.30,11.60,33.20,12.88,-999.99,4,-999.99,4,-999.99,1.22,154.30,254.38,24.71
AOML_Brown,RB200709,289.967,16102007,23:12:12,6.850,-79.866,350.75,384.83,1007.20,1008.00,26.78,26.63,29.52,9.35,330.32,32.98,1007.20,190.80,12.10,44.60,12.88,333.55,2,368.62,2,-35.07,1.17,154.31,270.41,24.95
AOML_Brown,RB200709,289.970,16102007,23:16:52,6.834,-79.869,353.75,384.83,1007.29,1008.11,26.82,26.65,29.61,9.04,332.40,33.16,1007.29,190.80,12.10,36.50,11.19,336.18,2,368.62,2,-32.44,1.15,154.33,262.65,25.00
AOML_Brown,RB200709,289.973,16102007,23:21:12,6.820,-79.872,354.15,384.83,1007.45,1008.10,26.83,26.66,29.59,9.06,326.76,33.28,1007.45,190.20,12.40,43.80,11.59,336.62,2,368.62,2,-32.00,1.15,154.34,271.69,24.80
AOML_Brown,RB200709,289.976,16102007,23:25:32,6.805,-79.875,354.02,384.83,1007.33,1008.07,26.82,26.69,29.62,9.14,332.88,33.16,1007.33,191.20,12.30,43.10,12.18,336.90,2,368.62,2,-31.73,1.13,154.34,268.41,24.88
AOML_Brown,RB200709,289.988,16102007,23:42:12,6.749,-79.886,353.13,384.83,1007.36,1008.19,26.89,26.75,29.73,9.33,329.91,33.06,1007.36,191.10,12.40,39.00,11.39,335.92,2,368.62,2,-32.70,1.08,154.37,266.54,24.71
AOML_Brown,RB200709,289.991,16102007,23:46:32,6.734,-79.889,356.10,384.83,1007.47,1008.12,26.91,26.76,29.77,9.37,331.73,33.20,1007.47,191.20,12.20,39.50,11.09,338.61,2,368.62,2,-30.02,1.06,154.38,269.09,25.03
AOML_Brown,RB200709,289.994,16102007,23:51:12,6.719,-79.892,357.19,384.83,1007.34,1008.11,26.91,26.78,29.77,9.43,327.17,33.34,1007.34,191.40,12.30,43.60,12.79,339.86,2,368.62,2,-28.76,1.05,154.38,266.95,25.23
AOML_Brown,RB200709,289.997,16102007,23:55:32,6.704,-79.895,357.48,384.83,1007.50,1008.16,26.90,26.76,29.82,9.37,331.06,33.42,1007.50,191.20,12.40,41.30,12.29,340.09,2,368.62,2,-28.53,1.05,154.38,266.06,25.20
AOML_Brown,RB200709,290.008,17102007,00:12:12,6.648,-79.906,354.13,385.56,1007.80,1008.51,26.89,26.77,29.90,9.42,330.69,33.07,1007.80,191.20,12.30,33.30,11.48,337.27,2,369.57,2,-32.30,1.03,154.37,259.04,25.55
AOML_Brown,RB200709,290.012,17102007,00:16:52,6.632,-79.909,356.63,385.56,1007.83,1008.60,26.88,26.73,29.93,9.29,331.64,33.18,1007.83,191.70,12.10,39.60,10.59,339.30,2,369.57,2,-30.27,1.03,154.36,268.94,25.58
AOML_Brown,RB200709,290.015,17102007,00:21:12,6.618,-79.912,357.70,385.56,1007.87,1008.60,26.90,26.76,29.90,9.38,328.26,33.32,1007.87,192.20,12.10,38.90,12.49,340.48,2,369.57,2,-29.08,1.03,154.37,262.99,25.85
AOML_Brown,RB200709,290.018,17102007,00:25:32,6.603,-79.914,357.52,385.56,1007.93,1008.61,26.84,26.73,29.88,9.14,326.91,33.46,1007.93,189.90,12.30,38.90,13.38,340.63,2,369.57,2,-28.94,1.03,154.35,259.62,26.10
AOML_Brown,RB200709,290.029,17102007,00:42:12,6.548,-79.925,354.28,385.56,1008.09,1008.81,26.88,26.72,29.93,9.36,328.16,33.09,1008.09,190.90,12.10,41.50,13.38,337.04,2,369.57,2,-32.53,1.02,154.36,261.88,26.12
AOML_Brown,RB200709,290.032,17102007,00:46:32,6.534,-79.928,357.50,385.56,1008.22,1008.89,26.86,26.72,29.92,9.23,329.35,33.14,1008.22,190.10,12.10,42.20,13.38,340.28,2,369.57,2,-29.29,1.02,154.36,264.89,26.00
AOML_Brown,RB200709,290.036,17102007,00:51:12,6.518,-79.931,359.22,385.56,1008.24,1009.00,26.86,26.73,30.01,9.40,325.98,33.25,1008.24,191.80,12.30,44.30,13.78,342.02,2,369.57,2,-27.55,1.01,154.36,264.20,26.12
AOML_Brown,RB200709,290.039,17102007,00:55:32,6.504,-79.934,359.75,385.56,1008.44,1008.99,26.89,26.74,30.06,9.36,323.25,33.38,1008.44,191.30,12.10,43.50,13.38,342.42,2,369.57,2,-27.15,1.02,154.37,264.20,26.10
AOML_Brown,RB200709,290.050,17102007,01:12:12,6.448,-79.945,355.86,385.94,1008.85,1009.47,26.88,26.75,30.13,9.12,327.87,33.13,1008.85,191.20,12.30,45.00,12.99,339.05,2,370.36,2,-31.31,1.01,154.37,267.08,26.05
AOML_Brown,RB200709,290.053,17102007,01:16:52,6.433,-79.948,359.98,385.94,1008.92,1009.60,26.89,26.76,30.15,9.30,329.01,33.10,1008.92,192.00,12.20,35.50,12.88,343.16,2,370.36,2,-27.20,1.01,154.37,255.32,26.10
AOML_Brown,RB200709,290.056,17102007,01:21:12,6.418,-79.951,361.26,385.94,1009.10,1009.75,26.92,26.77,30.17,9.37,329.19,33.18,1009.10,190.70,12.10,39.30,13.08,344.13,2,370.36,2,-26.23,1.01,154.38,255.57,26.07
AOML_Brown,RB200709,290.059,17102007,01:25:32,6.404,-79.953,361.53,385.94,1009.11,1009.79,26.92,26.78,30.16,9.35,329.31,33.30,1009.11,190.90,12.10,39.00,12.38,344.39,2,370.36,2,-25.97,1.01,154.39,259.21,26.10
AOML_Brown,RB200709,290.071,17102007,01:42:12,6.348,-79.964,357.64,385.94,1009.43,1010.19,26.92,26.79,30.26,9.26,327.75,33.18,1009.43,191.30,12.30,38.70,11.59,341.14,2,370.36,2,-29.22,0.98,154.38,262.14,26.02
AOML_Brown,RB200709,290.074,17102007,01:46:32,6.334,-79.967,360.59,385.94,1009.48,1010.24,26.89,26.79,30.27,9.29,325.80,33.09,1009.48,191.30,12.30,34.90,11.39,344.33,2,370.36,2,-26.03,0.99,154.37,259.30,26.10
AOML_Brown,RB200709,290.077,17102007,01:51:12,6.318,-79.970,361.84,385.94,1009.64,1010.32,26.94,26.80,30.28,9.20,328.48,33.14,1009.64,191.50,12.20,37.70,11.88,344.83,2,370.36,2,-25.53,0.97,154.40,260.39,26.02
AOML_Brown,RB200709,290.080,17102007,01:55:32,6.303,-79.973,362.04,385.94,1009.71,1010.39,26.92,26.78,30.29,9.14,321.97,33.25,1009.71,190.90,12.20,34.00,11.68,345.16,2,370.36,2,-25.19,0.96,154.39,257.79,26.02
AOML_Brown,RB200709,290.092,17102007,02:12:12,6.247,-79.984,357.74,386.69,1009.99,1010.51,26.93,26.79,30.31,9.20,327.64,33.16,1009.99,190.30,12.30,36.40,10.98,341.21,2,371.37,2,-30.16,0.95,154.39,262.73,26.07
AOML_Brown,RB200709,290.095,17102007,02:16:52,6.232,-79.987,360.96,386.69,1009.87,1010.56,26.95,26.81,30.33,9.04,334.68,33.08,1009.87,191.50,12.30,33.90,10.89,344.14,2,371.37,2,-27.23,0.95,154.40,256.57,26.07
AOML_Brown,RB200709,290.098,17102007,02:21:12,6.217,-79.990,363.27,386.69,1009.88,1010.67,26.95,26.81,30.33,9.10,328.18,33.12,1009.88,190.20,12.20,41.10,11.48,346.42,2,371.37,2,-24.95,0.96,154.40,265.05,26.02
AOML_Brown,RB200709,290.101,17102007,02:25:32,6.203,-79.993,363.47,386.69,1009.97,1010.66,26.93,26.80,30.32,9.17,337.05,33.23,1009.97,190.20,12.20,32.10,11.29,346.79,2,371.37,2,-24.58,0.96,154.39,252.36,26.00
AOML_Brown,RB200709,290.113,17102007,02:42:12,6.147,-80.004,360.73,386.69,1010.33,1010.96,26.93,26.80,30.42,9.13,330.12,33.22,1010.33,191.50,12.30,30.00,10.89,344.23,2,371.37,2,-27.14,0.96,154.39,254.10,26.07
AOML_Brown,RB200709,290.116,17102007,02:46:32,6.133,-80.006,362.59,386.69,1010.24,1011.04,26.91,26.80,30.44,8.93,327.14,33.11,1010.24,191.10,12.30,28.10,10.89,346.26,2,371.37,2,-25.10,0.97,154.38,251.27,25.97
AOML_Brown,RB200709,290.119,17102007,02:51:12,6.117,-80.010,364.59,386.69,1010.33,1011.02,26.94,26.80,30.49,9.01,332.87,33.12,1010.33,191.40,12.50,32.70,10.98,347.77,2,371.37,2,-23.59,0.96,154.40,256.23,26.07
AOML_Brown,RB200709,290.122,17102007,02:55:32,6.102,-80.012,365.11,386.69,1010.29,1011.05,26.93,26.80,30.52,8.77,331.54,33.22,1010.29,190.80,12.50,28.90,11.19,348.39,2,371.37,2,-22.97,0.98,154.39,249.45,26.02
AOML_Brown,RB200709,290.133,17102007,03:12:12,6.045,-80.023,360.26,386.64,1010.66,1011.27,26.94,26.81,30.51,9.09,359.45,33.24,1010.66,190.30,11.90,18.00,10.69,343.89,2,371.63,2,-27.74,0.98,154.40,232.91,25.50
AOML_Brown,RB200709,290.137,17102007,03:16:52,6.030,-80.026,362.32,386.64,1010.77,1011.34,26.93,26.79,30.50,9.10,356.70,33.11,1010.77,191.90,12.00,12.90,10.59,345.85,2,371.63,2,-25.78,0.96,154.39,222.81,25.50
AOML_Brown,RB200709,290.140,17102007,03:21:12,6.016,-80.029,363.09,386.64,1010.77,1011.40,26.89,26.78,30.50,9.11,360.06,33.11,1010.77,191.30,12.00,12.10,10.49,346.99,2,371.63,2,-24.63,0.96,154.37,223.10,25.53
AOML_Brown,RB200709,290.143,17102007,03:25:32,6.001,-80.032,363.18,386.64,1010.88,1011.44,26.89,26.77,30.50,9.03,344.56,33.20,1010.88,190.20,12.20,21.60,10.78,346.99,2,371.63,2,-24.64,0.96,154.37,236.51,25.67
AOML_Brown,RB200709,290.154,17102007,03:42:12,5.946,-80.043,360.82,386.64,1010.84,1011.57,26.90,26.75,30.46,9.31,331.16,33.24,1010.84,192.00,11.90,24.10,11.59,344.31,2,371.63,2,-27.32,0.96,154.37,238.91,25.65
AOML_Brown,RB200709,290.157,17102007,03:46:32,5.932,-80.046,363.24,386.64,1010.85,1011.52,26.88,26.74,30.45,9.14,335.21,33.10,1010.85,190.60,12.00,18.70,11.48,346.67,2,371.63,2,-24.96,0.95,154.37,231.77,25.30
AOML_Brown,RB200709,290.161,17102007,03:51:12,5.917,-80.049,364.48,386.64,1010.95,1011.52,26.84,26.77,30.53,9.23,333.35,33.09,1010.95,191.20,11.90,17.00,10.98,349.09,2,371.63,2,-22.53,0.95,154.34,229.32,24.78
AOML_Brown,RB200709,290.164,17102007,03:55:32,5.903,-80.051,365.38,386.64,1010.92,1011.63,26.90,26.77,30.56,9.13,333.87,33.19,1010.92,192.20,12.00,17.50,10.49,348.94,2,371.63,2,-22.69,0.95,154.38,231.47,24.53
AOML_Brown,RB200709,290.175,17102007,04:12:12,5.848,-80.062,362.77,384.88,1010.96,1011.64,26.89,26.75,30.61,9.09,332.81,33.29,1010.96,191.30,12.00,31.80,11.19,346.37,2,369.92,2,-23.55,0.95,154.37,252.49,23.96
AOML_Brown,RB200709,290.178,17102007,04:16:52,5.833,-80.065,365.60,384.88,1011.00,1011.73,26.87,26.74,30.64,8.82,336.16,33.13,1011.00,190.10,12.00,33.50,10.28,349.27,2,369.92,2,-20.65,0.94,154.36,260.05,23.84
AOML_Brown,RB200709,290.181,17102007,04:21:12,5.818,-80.068,367.31,384.88,1010.89,1011.75,26.90,26.78,30.63,9.20,337.18,33.08,1010.89,191.60,12.10,23.90,8.79,350.90,2,369.92,2,-19.02,0.94,154.37,256.47,24.06
AOML_Brown,RB200709,290.184,17102007,04:25:32,5.804,-80.071,365.67,384.88,1010.68,1011.50,26.88,26.76,30.63,9.07,332.89,33.15,1010.68,191.70,12.10,25.10,11.09,349.23,2,369.92,2,-20.68,0.94,154.37,244.37,25.10
AOML_Brown,RB200709,290.196,17102007,04:42:12,5.749,-80.081,362.52,384.88,1010.61,1011.33,26.89,26.76,30.65,9.23,341.09,33.25,1010.61,191.10,12.00,28.10,10.78,346.05,2,369.92,2,-23.87,0.93,154.37,248.08,25.95
AOML_Brown,RB200709,290.199,17102007,04:46:32,5.734,-80.084,364.68,384.88,1010.67,1011.34,26.88,26.76,30.66,9.05,327.45,33.11,1010.67,191.20,12.10,26.50,10.78,348.38,2,369.92,2,-21.54,0.93,154.36,246.24,25.97
AOML_Brown,RB200709,290.202,17102007,04:51:12,5.719,-80.087,365.69,384.88,1010.60,1011.29,26.91,26.77,30.65,9.10,338.08,33.08,1010.60,191.20,12.00,29.70,10.78,349.08,2,369.92,2,-20.84,0.93,154.38,249.92,25.92
AOML_Brown,RB200709,290.205,17102007,04:55:32,5.705,-80.090,365.53,384.88,1010.43,1011.24,26.91,26.77,30.64,9.37,331.94,33.17,1010.43,190.50,11.90,30.70,11.29,348.82,2,369.92,2,-21.10,0.93,154.38,250.68,25.90
AOML_Brown,RB200709,290.217,17102007,05:12:12,5.650,-80.101,363.33,385.58,1010.27,1011.03,26.90,26.79,30.63,9.07,330.21,33.39,1010.27,190.70,11.80,27.70,11.19,346.99,2,370.36,2,-23.36,0.94,154.38,246.63,25.82
AOML_Brown,RB200709,290.220,17102007,05:16:52,5.635,-80.104,365.45,385.58,1010.18,1011.02,26.91,26.78,30.63,9.02,334.30,33.20,1010.18,191.50,11.70,31.50,10.59,348.81,2,370.36,2,-21.54,0.94,154.38,254.98,25.70
AOML_Brown,RB200709,290.223,17102007,05:21:12,5.621,-80.106,366.93,385.58,1010.09,1010.91,26.91,26.76,30.63,9.08,338.58,33.09,1010.09,191.40,11.90,29.60,11.39,349.85,2,370.36,2,-20.50,0.94,154.38,255.08,25.67
AOML_Brown,RB200709,290.226,17102007,05:25:32,5.607,-80.109,367.00,385.58,1010.20,1010.88,26.91,26.78,30.63,9.01,334.58,33.12,1010.20,190.70,11.80,35.00,10.69,350.29,2,370.36,2,-20.07,0.94,154.38,259.68,25.55
AOML_Brown,RB200709,290.238,17102007,05:42:12,5.553,-80.120,363.98,385.58,1010.02,1010.80,26.91,26.78,30.62,9.03,327.74,33.44,1010.02,190.90,11.90,30.00,10.78,347.33,2,370.36,2,-23.02,0.93,154.38,252.61,25.80
AOML_Brown,RB200709,290.241,17102007,05:46:32,5.539,-80.122,366.14,385.58,1010.04,1010.72,26.90,26.78,30.63,9.16,333.50,33.24,1010.04,190.90,11.70,31.90,11.59,349.48,2,370.36,2,-20.88,0.92,154.37,253.34,25.65
AOML_Brown,RB200709,290.244,17102007,05:51:12,5.524,-80.125,367.47,385.58,1010.08,1010.77,26.91,26.78,30.65,9.09,335.32,33.09,1010.08,190.90,11.80,35.60,10.69,350.63,2,370.36,2,-19.73,0.91,154.38,262.60,25.65
AOML_Brown,RB200709,290.247,17102007,05:55:32,5.510,-80.128,368.40,385.58,1010.01,1010.74,26.91,26.78,30.67,9.09,330.87,33.07,1010.01,190.70,11.90,33.10,11.29,351.53,2,370.36,2,-18.82,0.91,154.38,257.20,25.75
AOML_Brown,RB200709,290.258,17102007,06:12:12,5.455,-80.139,365.85,385.43,1009.96,1010.63,26.88,26.76,30.74,9.04,334.63,33.40,1009.96,191.30,12.00,31.40,11.98,349.35,2,370.06,2,-20.71,0.91,154.36,250.80,25.43
AOML_Brown,RB200709,290.262,17102007,06:16:52,5.440,-80.142,367.90,385.43,1009.89,1010.57,26.88,26.76,30.77,8.88,333.41,33.21,1009.89,190.20,12.30,25.10,10.98,351.11,2,370.06,2,-18.95,0.91,154.37,257.50,25.45
AOML_Brown,RB200709,290.265,17102007,06:21:12,5.425,-80.144,369.01,385.43,1009.90,1010.60,26.89,26.76,30.77,8.70,338.80,33.08,1009.90,192.60,12.10,29.00,11.39,352.14,2,370.06,2,-17.92,0.92,154.37,251.59,25.38
AOML_Brown,RB200709,290.268,17102007,06:25:32,5.411,-80.147,369.64,385.43,1009.73,1010.56,26.87,26.76,30.79,8.74,333.63,33.07,1009.73,191.20,12.10,27.10,11.68,352.94,2,370.06,2,-17.12,0.93,154.36,242.91,25.33
AOML_Brown,RB200709,290.279,17102007,06:42:12,5.356,-80.158,366.71,385.43,1009.69,1010.48,26.86,26.73,30.85,8.82,332.47,33.46,1009.69,191.00,12.10,23.60,10.19,349.85,2,370.06,2,-20.22,0.94,154.35,248.19,24.61
AOML_Brown,RB200709,290.282,17102007,06:46:32,5.341,-80.161,368.27,385.43,1009.56,1010.44,26.86,26.72,30.86,8.79,334.95,33.29,1009.56,191.30,12.10,22.70,11.09,351.12,2,370.06,2,-18.94,0.94,154.35,243.15,24.73
AOML_Brown,RB200709,290.286,17102007,06:51:12,5.326,-80.164,369.03,385.43,1009.53,1010.29,26.85,26.72,30.87,8.70,338.26,33.11,1009.53,192.70,12.00,37.60,13.18,351.98,2,370.06,2,-18.08,0.94,154.35,258.02,25.13
AOML_Brown,RB200709,290.289,17102007,06:55:32,5.312,-80.167,369.76,385.43,1009.57,1010.32,26.87,26.73,30.90,8.74,341.74,33.06,1009.57,191.20,12.10,34.00,11.39,352.42,2,370.06,2,-17.65,0.94,154.36,257.76,24.53
AOML_Brown,RB200709,290.300,17102007,07:12:12,5.256,-80.177,367.10,385.32,1009.37,1010.12,26.85,26.72,30.97,8.85,331.98,33.46,1009.37,191.50,12.00,37.00,12.09,350.01,2,369.91,2,-19.90,0.97,154.35,260.76,24.95
AOML_Brown,RB200709,290.303,17102007,07:16:52,5.241,-80.180,368.62,385.32,1009.34,1010.10,26.85,26.71,30.99,8.76,338.47,33.31,1009.34,191.10,12.10,38.60,11.29,351.31,2,369.91,2,-18.60,0.98,154.35,265.88,24.68
AOML_Brown,RB200709,290.306,17102007,07:21:12,5.227,-80.183,369.47,385.32,1009.46,1010.09,26.84,26.71,30.99,8.80,334.18,33.13,1009.46,190.70,12.10,38.60,11.88,352.40,2,369.91,2,-17.51,1.00,154.34,262.52,24.48
AOML_Brown,RB200709,290.309,17102007,07:25:32,5.212,-80.186,370.24,385.32,1009.47,1010.13,26.85,26.72,31.03,8.70,335.40,33.06,1009.47,192.20,12.00,32.40,12.09,353.09,2,369.91,2,-16.82,0.98,154.35,254.47,24.58
AOML_Brown,RB200709,290.321,17102007,07:42:12,5.157,-80.197,367.65,385.32,1009.51,1010.24,26.82,26.70,31.09,8.43,334.94,33.45,1009.51,190.10,12.10,37.70,9.39,350.75,2,369.91,2,-19.16,1.02,154.33,273.15,24.88
AOML_Brown,RB200709,290.324,17102007,07:46:32,5.143,-80.200,369.18,385.32,1009.33,1010.14,26.82,26.69,31.13,8.71,334.60,33.32,1009.33,191.20,12.00,32.90,11.79,352.15,2,369.91,2,-17.76,1.04,154.33,257.36,24.93
AOML_Brown,RB200709,290.327,17102007,07:51:12,5.127,-80.203,369.93,385.32,1009.35,1010.10,26.81,26.68,31.13,8.80,338.64,33.13,1009.35,191.60,12.00,33.10,11.19,352.87,2,369.91,2,-17.04,1.06,154.33,258.81,24.80
AOML_Brown,RB200709,290.330,17102007,07:55:32,5.113,-80.205,370.31,385.32,1009.40,1010.03,26.80,26.67,31.12,8.92,343.19,33.05,1009.40,191.20,12.00,27.00,12.09,353.19,2,369.91,2,-16.72,1.06,154.32,246.90,24.73
AOML_Brown,RB200709,290.342,17102007,08:12:12,5.057,-80.216,366.94,385.32,1009.40,1010.12,26.76,26.63,31.16,8.75,330.60,33.42,1009.40,190.60,12.20,34.50,11.48,349.99,2,370.01,2,-20.02,1.12,154.30,260.62,25.00
AOML_Brown,RB200709,290.345,17102007,08:16:52,5.042,-80.219,368.43,385.32,1009.53,1010.16,26.75,26.62,31.18,8.77,337.29,33.28,1009.53,191.30,12.30,35.20,11.09,351.59,2,370.01,2,-18.43,1.15,154.30,263.08,24.90
AOML_Brown,RB200709,290.348,17102007,08:21:12,5.027,-80.222,369.33,385.32,1009.62,1010.22,26.75,26.63,31.18,8.78,340.70,33.10,1009.62,189.80,12.20,29.80,11.68,352.40,2,370.01,2,-17.61,1.16,154.30,252.96,25.25
AOML_Brown,RB200709,290.351,17102007,08:25:32,5.012,-80.225,369.89,385.32,1009.51,1010.25,26.72,26.59,31.26,8.90,339.62,33.03,1009.51,190.60,12.50,20.80,11.09,352.89,2,370.01,2,-17.12,1.19,154.28,243.92,25.15
AOML_Brown,RB200709,290.363,17102007,08:42:12,4.955,-80.236,368.97,385.32,1009.47,1010.26,26.70,26.59,31.42,8.90,336.49,33.46,1009.47,190.40,12.50,31.80,11.19,352.28,2,370.01,2,-17.73,1.36,154.27,259.32,24.98
AOML_Brown,RB200709,290.366,17102007,08:46:32,4.940,-80.239,370.80,385.32,1009.54,1010.20,26.68,26.56,31.47,8.84,333.67,33.40,1009.54,190.50,12.30,32.80,12.09,353.99,2,370.01,2,-16.02,1.37,154.26,256.80,25.05
AOML_Brown,RB200709,290.369,17102007,08:51:12,4.924,-80.242,371.95,385.32,1009.66,1010.26,26.67,26.57,31.58,8.73,337.84,33.19,1009.66,191.50,12.30,35.40,10.98,355.32,2,370.01,2,-14.69,1.38,154.26,265.02,25.13
AOML_Brown,RB200709,290.372,17102007,08:55:32,4.910,-80.245,373.81,385.32,1009.53,1010.26,26.70,26.57,31.63,8.83,344.53,33.05,1009.53,191.20,12.20,26.80,12.58,356.73,2,370.01,2,-13.28,1.39,154.27,245.63,24.95
AOML_Brown,RB200709,290.383,17102007,09:12:12,4.854,-80.256,375.02,385.22,1009.63,1010.33,26.64,26.52,31.95,8.95,335.40,33.40,1009.63,190.30,12.30,30.00,11.19,358.04,2,370.12,2,-12.07,1.45,154.24,253.79,25.03
AOML_Brown,RB200709,290.387,17102007,09:16:52,4.838,-80.259,377.09,385.22,1009.60,1010.31,26.62,26.50,32.05,8.97,335.14,33.35,1009.60,191.00,12.30,29.40,11.59,359.93,2,370.12,2,-10.18,1.51,154.23,252.53,24.98
AOML_Brown,RB200709,290.390,17102007,09:21:12,4.824,-80.262,378.57,385.22,1009.60,1010.31,26.62,26.49,32.11,8.86,345.89,33.16,1009.60,190.80,12.20,31.30,11.68,361.29,2,370.12,2,-8.82,1.57,154.23,254.22,25.08
AOML_Brown,RB200709,290.393,17102007,09:25:32,4.809,-80.265,379.60,385.22,1009.72,1010.30,26.58,26.44,32.11,8.95,342.47,33.03,1009.72,190.80,12.20,34.40,11.68,362.24,2,370.12,2,-7.88,1.60,154.21,256.67,25.08
AOML_Brown,RB200709,290.404,17102007,09:42:12,4.753,-80.276,378.32,385.22,1009.71,1010.38,26.58,26.44,32.13,8.92,335.48,33.40,1009.71,191.20,12.30,37.70,11.19,360.85,2,370.12,2,-9.26,1.59,154.21,264.07,25.03
AOML_Brown,RB200709,290.407,17102007,09:46:32,4.738,-80.279,379.51,385.22,1009.57,1010.44,26.57,26.45,32.19,8.83,343.05,33.46,1009.57,191.70,12.50,37.20,11.29,362.47,2,370.12,2,-7.65,1.57,154.20,264.36,24.88
AOML_Brown,RB200709,290.411,17102007,09:51:12,4.722,-80.282,380.74,385.22,1009.65,1010.40,26.58,26.45,32.24,8.83,337.81,33.28,1009.65,191.00,12.40,36.10,11.39,363.42,2,370.12,2,-6.69,1.55,154.21,261.79,24.98
AOML_Brown,RB200709,290.414,17102007,09:55:32,4.707,-80.285,381.93,385.22,1009.75,1010.42,26.57,26.45,32.26,8.87,350.30,33.10,1009.75,191.10,12.60,39.30,10.59,364.74,2,370.12,2,-5.37,1.51,154.21,270.34,25.08
AOML_Brown,RB200709,290.425,17102007,10:12:12,4.651,-80.296,387.39,385.22,1009.74,1010.53,26.55,26.39,32.84,8.81,347.36,33.35,1009.74,190.80,12.20,41.60,11.29,369.28,2,370.36,2,-1.08,1.45,154.20,266.62,25.00
AOML_Brown,RB200709,290.428,17102007,10:16:52,4.635,-80.299,388.11,385.22,1009.91,1010.56,26.54,26.41,32.82,8.84,349.23,33.47,1009.91,190.90,12.00,40.30,10.69,370.58,2,370.36,2,0.22,1.47,154.19,270.46,24.98
AOML_Brown,RB200709,290.431,17102007,10:21:12,4.621,-80.301,389.05,385.22,1010.05,1010.64,26.51,26.37,32.79,8.80,357.96,33.36,1010.05,191.20,12.10,39.70,10.28,371.44,2,370.36,2,1.08,1.44,154.17,267.73,25.00
AOML_Brown,RB200709,290.434,17102007,10:25:32,4.606,-80.304,389.86,385.22,1010.13,1010.68,26.46,26.32,32.78,8.59,349.75,33.15,1010.13,191.20,12.20,35.70,10.59,372.22,2,370.36,2,1.86,1.44,154.15,268.85,25.10
AOML_Brown,RB200709,290.446,17102007,10:42:12,4.551,-80.315,393.12,385.22,1010.15,1010.84,26.41,26.28,32.77,8.92,353.06,33.32,1010.15,191.30,12.00,29.30,11.39,375.55,2,370.36,2,5.19,1.45,154.12,249.46,25.30
AOML_Brown,RB200709,290.449,17102007,10:46:32,4.537,-80.318,393.65,385.22,1010.17,1010.88,26.40,26.24,32.79,8.88,353.43,33.45,1010.17,190.90,12.00,23.20,10.89,375.73,2,370.36,2,5.38,1.47,154.12,247.14,25.15
AOML_Brown,RB200709,290.452,17102007,10:51:12,4.522,-80.321,395.09,385.22,1010.24,1010.91,26.35,26.20,32.86,8.89,349.73,33.50,1010.24,190.90,12.00,32.20,11.29,377.12,2,370.36,2,6.76,1.43,154.09,252.33,25.10
AOML_Brown,RB200709,290.455,17102007,10:55:32,4.508,-80.323,394.74,385.22,1010.38,1011.01,26.55,26.41,33.04,8.74,349.01,33.31,1010.38,191.50,11.80,28.70,10.49,376.88,2,370.36,2,6.52,1.37,154.20,252.81,25.18
AOML_Brown,RB200709,290.467,17102007,11:12:12,4.454,-80.334,393.65,385.25,1010.36,1010.94,26.46,26.33,33.02,8.82,347.93,33.24,1010.36,191.50,11.80,29.10,11.48,376.12,2,370.57,2,5.56,1.40,154.15,249.69,25.13
AOML_Brown,RB200709,290.470,17102007,11:16:52,4.438,-80.337,391.87,385.25,1010.40,1010.94,26.45,26.32,33.03,8.67,352.09,33.38,1010.40,191.60,11.90,29.70,12.88,374.38,2,370.57,2,3.81,1.40,154.15,246.22,25.15
AOML_Brown,RB200709,290.473,17102007,11:21:12,4.424,-80.340,391.31,385.25,1010.42,1011.04,26.46,26.32,33.03,8.50,353.39,33.50,1010.42,191.30,11.70,28.30,11.88,373.72,2,370.57,2,3.16,1.44,154.15,251.78,25.18
AOML_Brown,RB200709,290.476,17102007,11:25:32,4.410,-80.342,391.15,385.25,1010.60,1011.09,26.45,26.31,33.02,8.60,353.16,33.43,1010.60,191.00,11.80,29.60,11.48,373.70,2,370.57,2,3.13,1.43,154.14,251.34,25.15
AOML_Brown,RB200709,290.488,17102007,11:42:12,4.355,-80.353,392.47,385.25,1010.64,1011.39,26.42,26.28,33.01,8.78,349.22,33.16,1010.64,189.60,12.50,30.70,11.59,374.91,2,370.57,2,4.34,1.44,154.13,256.36,25.10
AOML_Brown,RB200709,290.491,17102007,11:46:32,4.340,-80.356,392.30,385.25,1010.76,1011.41,26.40,26.26,33.02,8.70,346.49,33.29,1010.76,191.30,12.60,31.40,11.79,374.86,2,370.57,2,4.30,1.46,154.12,253.28,25.08
AOML_Brown,RB200709,290.494,17102007,11:51:12,4.324,-80.359,392.79,385.25,1010.88,1011.49,26.40,26.25,33.06,8.68,350.26,33.43,1010.88,190.80,12.40,29.40,11.59,375.28,2,370.57,2,4.71,1.45,154.12,251.18,25.08
AOML_Brown,RB200709,290.497,17102007,11:55:32,4.309,-80.362,393.09,385.25,1010.83,1011.51,26.47,26.33,33.11,8.71,346.21,33.53,1010.83,191.70,12.40,30.10,12.09,375.61,2,370.57,2,5.04,1.48,154.16,252.19,25.03